Weather Roundup
Issued by NWS

Home | Current Version | Previous Version | Text Only | Print | Product List | Glossary On
Versions: 1 2 3 4 5 6 7 8 9 10 11 12 13 14 15 16 17 18 19 20 21 22 23 24 25 26 27 28 29 30 31 32 33 34 35 36 37 38 39 40 41 42 43 44 45 46 47 48 49 50
000
NZUS93 KARX 260610
HRRWXR

CURRENT HOURLY OBSERVATIONS ACROSS
MUCH OF THE UPPER MISSISSIPPI VALLEY
NATIONAL WEATHER SERVICE LA CROSSE WI
1200 AM CST MON JAN 26 2015


...SOUTHEAST MINNESOTA...


CITY           SKY/WX    TMP DP  RH WIND       PRES   REMARKS
ROCHESTER      CLOUDY    23  19  85 SW9       29.99S WCI  13
ROCHESTER/MAYO CLOUDY    25  19  76 S5        29.99F WCI  19
WINONA         CLOUDY    19  16  86 CALM      30.04F
AUSTIN         MOCLDY    21  18  86 S5        29.99F WCI  15
ALBERT LEA     CLOUDY    23  21  93 S6        29.98F WCI  16
DODGE CENTER   CLOUDY    21  19  93 S7        29.97F WCI  13
PRESTON        CLOUDY    24  19  81 CALM      30.01R
OWATONNA       CLOUDY    23  19  86 S8        29.96F WCI  14
FARIBAULT      CLOUDY    21  18  86 S3        29.97F
$$

...ELSEWHERE IN MINNESOTA...


CITY           SKY/WX    TMP DP  RH WIND       PRES   REMARKS
MINNEAPOLIS    CLOUDY    22  15  75 S7        29.99F WCI  13
INTNL FALLS    LGT SNOW  23  15  71 VRB7      29.72F WCI  15
DULUTH         CLOUDY    19   9  65 S9        29.85F WCI   8
RED WING       CLOUDY    18  16  93 CALM      30.00F
REDWOOD FALLS  CLOUDY    31  27  85 S8        29.93F WCI  23
MANKATO        MOCLDY    25  19  80 S6        29.98S WCI  18
WORTHINGTON    CLOUDY    32  28  86 SW9       29.94F WCI  24
FAIRMONT       CLOUDY    28  23  80 S8        29.97F WCI  20
$$

...SOUTHWEST WISCONSIN...


CITY           SKY/WX    TMP DP  RH WIND       PRES   REMARKS
LA CROSSE      PTCLDY    21  14  74 S3        30.04S
PRAIRIE DU CHI MOCLDY    18  12  80 CALM      30.06S
BOSCOBEL       MOCLDY    19  11  70 CALM      30.06S
LONE ROCK      PTCLDY    15   9  76 CALM      30.06S
PLATTEVILLE    PTCLDY    18  13  80 NE3       30.03S
FORT MC COY    PTCLDY    16  12  85 CALM      30.05S
CAMP DOUGLAS   PTCLDY    11  11  98 E5        30.03S WCI   3
VIROQUA        FAIR      18  12  78 SE3       30.00F
WIS DELLS      PTCLDY    12   8  85 CALM      30.03F
$$

...ELSEWHERE IN WISCONSIN...


CITY           SKY/WX    TMP DP  RH WIND       PRES   REMARKS
MILWAUKEE      PTCLDY    23  12  62 NE5       30.00F WCI  17
MADISON        PTCLDY    14   9  80 NW3       30.03S
GREEN BAY      CLEAR     13   7  77 CALM      30.04F
EAU CLAIRE     PTCLDY    16   9  74 S6        30.00F WCI   7
BLACK RVR FLS  FAIR      13  10  87 CALM      30.03S
MEDFORD        MOCLDY     8   4  84 S7        29.96F WCI  -3
WAUSAU         PTCLDY    12   5  73 E6        29.98F WCI   3
WIS RAPIDS     PTCLDY    10   4  76 CALM      30.04S
MARSHFIELD     MOCLDY    13   5  70 S7        29.99F WCI   3
RICE LAKE      MOCLDY    15  10  79 S5        29.99F WCI   8
$$

...NORTHEAST IOWA...


CITY           SKY/WX    TMP DP  RH WIND       PRES   REMARKS
DECORAH        CLOUDY    23  16  74 S6        30.01S WCI  16
MASON CITY     CLOUDY    26  22  84 CALM      30.01F
CHARLES CITY   CLOUDY    27  25  93 W8        30.02F WCI  18
OELWEIN        CLOUDY    23  18  80 S9        30.03F WCI  13
$$

...ELSEWHERE IN IOWA...


CITY           SKY/WX    TMP DP  RH WIND       PRES   REMARKS
DES MOINES     CLOUDY    32  24  72 W3        30.06F
IOWA CITY      MOCLDY    18  16  92 CALM      30.09R
FORT DODGE     CLOUDY    28  23  80 S6        30.02F WCI  22
$$

...NORTHERN ILLINOIS...


CITY           SKY/WX    TMP DP  RH WIND       PRES   REMARKS
CHICAGO-OHARE  MOCLDY    24  15  68 NE13      29.97F WCI  12
CHICAGO-MIDWAY MOCLDY    26  17  68 E14       29.97F WCI  14
MOLINE         MOCLDY    20  12  71 VRB3      30.05S
ROCKFORD       CLOUDY    16  10  77 N7        30.04R WCI   6
PEORIA         CLEAR     23  15  71 N7        30.03R WCI  15
$$

NOTE: "FAIR" INDICATES FEW OR NO CLOUDS BELOW 12,000 FEET WITH NO
SIGNIFICANT WEATHER AND/OR OBSTRUCTIONS TO VISIBILITY. WIND
SPEEDS ARE IN MILES-PER-HOUR.



USA.gov is the U.S. government's official web portal to all federal, state and local government web resources and services.